ボリソフ彗星

C/2013 V2 ( Borisov )

English version
Home page
Updated on March 3, 2018

---------------------------------------------------------------------

・ プロフィール

発見日 2013年11月6日
発見光度 16.9等
発見者 G. Borisov (Crimean Laboratory, Sternberg Astronomical Institute)

・ 写真集

・ 軌道要素

Epoch 2014 Oct. 30.0 TT = JDT 2456960.5
T 2014 Oct. 14.36359 TT                                 MPCW
q   3.5079181            (2000.0)            P               Q
z  -0.0012370      Peri.   94.47205     -0.64068049     -0.61548833
 +/-0.0000002      Node    48.42728     +0.18243642     -0.70274589
e   1.0043392      Incl.   37.84839     +0.74581866     -0.35682256
From 1727 observations 2012 Nov. 17-2016 May 13, mean residual 0".5.

・ 星図

・ 光度変化

        m1 = 7.5 + 5 logΔ + 10.0 log r

---------------------------------------------------------------------

軌道要素はM.P.E.C. 2016-K18に掲載されたものです。
星図はステラナビゲータ Ver.8 (アストロアーツ) で作成したものです。
光度グラフはComet for Windowsで作成したものです。

---------------------------------------------------------------------

Copyright(C) Seiichi Yoshida (comet@aerith.net). All rights reserved.